Change the Weather History Date:

Saturday, July 27, 2013

  Actual Average Record
Temperature  
Mean Temperature 74 °F -  
Max Temperature 80 °F 80 °F 86 °F (1998)
Min Temperature 68 °F 64 °F 64 °F (2000)
Cooling Degree Days 9    
Growing Degree Days 24 (Base 50)    
Moisture  
Dew Point 60 °F    
Average Humidity 62    
Maximum Humidity 83    
Minimum Humidity 42    
Precipitation  
Precipitation 0.00 in 0.35 in - ()
Sea Level Pressure  
Sea Level Pressure 29.98 in    
Wind  
Wind Speed 11 mph ()    
Max Wind Speed 21 mph    
Max Gust Speed 31 mph    
Visibility 7.9 miles    
Events Rain    
Averages and records for this station are not official NWS values.
T = Trace of Precipitation, MM = Missing Value Source: Averaged Metar Reports

Daily Weather History Graph

Daily Weather History Graph

Search for Another Location

Airport or City:

Trip Planner

Search our weather history database for the weather conditions in past years. The results will help you decide how hot, cold, wet, or windy it might be!

Date:

Astronomy

Jul. 27, 2013 Rise Set
Actual Time 5:25 AM CST 6:00 PM CST
Civil Twilight 5:03 AM CST 6:23 PM CST
Nautical Twilight 4:37 AM CST 6:49 PM CST
Astronomical Twilight 4:10 AM CST 7:15 PM CST
Moon 10:05 PM CST (7/27) 9:52 AM CST (7/27)
Length of Visible Light 13h 19m
Length of Day
12h 35m
Waning Gibbous, 70% of the Moon is Illuminated
Jul 27
Waning Gibbous
Jul 29
Last Quarter
Aug 6
New
Aug 14
First Quarter
Aug 20
Full

Hourly Weather History & Observations

Time (CST) Temp. Heat Index Dew Point Humidity Pressure Visibility Wind Dir Wind Speed Gust Speed Precip Events Conditions
12:00 AM 74 °F - 60 °F 52% 29.84 in 12 mi East 12.7 mph - -   Partly Cloudy
12:00 AM 73.4 °F - 59.0 °F 61% 30.03 in - East 12.7 mph - N/A   Clear
1:00 AM 73.4 °F - 59.0 °F 61% 30.02 in - ENE 10.4 mph - N/A   Clear
2:00 AM 71.6 °F - 60.8 °F 69% 30.00 in - East 9.2 mph - N/A   Clear
3:00 AM 73.4 °F - 59.0 °F 61% 29.99 in - East 10.4 mph - N/A   Clear
4:00 AM 68.0 °F - 59.0 °F 73% 30.00 in - ENE 12.7 mph - N/A   Clear
5:00 AM 73.4 °F - 59.0 °F 61% 29.99 in - ENE 13.8 mph - N/A   Clear
6:00 AM 72 °F - 59 °F 54% 29.83 in 12 mi ENE 13.8 mph - -   Overcast
6:00 AM 71.6 °F - 59.0 °F 64% 30.00 in 6.2 mi East 13.8 mph - N/A   Mostly Cloudy
7:00 AM 73.4 °F - 59.0 °F 61% 30.01 in 6.2 mi East 10.4 mph 21.9 mph N/A   Mostly Cloudy
8:00 AM 75.2 °F - 59.0 °F 57% 30.02 in 6.2 mi East 20.7 mph - N/A   Scattered Clouds
9:00 AM 77 °F - 58 °F 43% 29.85 in 12 mi ENE 15.0 mph - -   Overcast
9:00 AM 77.0 °F - 59.0 °F 54% 30.02 in 6.2 mi ENE 15.0 mph 26.5 mph N/A   Mostly Cloudy
10:00 AM 78.8 °F - 59.0 °F 51% 30.03 in 6.2 mi ENE 15.0 mph 26.5 mph N/A   Mostly Cloudy
11:00 AM 80.6 °F 81.1 °F 59.0 °F 48% 30.01 in 6.2 mi ENE 19.6 mph 31.1 mph N/A   Mostly Cloudy
12:00 PM 77 °F - 58 °F 42% 29.85 in 12 mi ENE 15.0 mph - -   Overcast
12:00 PM 77.0 °F - 59.0 °F 54% 30.02 in 6.2 mi ENE 15.0 mph 26.5 mph N/A   Mostly Cloudy
1:00 PM 77.0 °F - 60.8 °F 57% 30.00 in 6.2 mi East 11.5 mph 23.0 mph N/A Rain Light Rain
2:00 PM 78.8 °F - 60.8 °F 54% 29.99 in 6.2 mi East 17.3 mph - N/A   Mostly Cloudy
3:00 PM 71.6 °F - 60.8 °F 69% 29.98 in 6.2 mi ESE 10.4 mph - N/A Rain Light Rain
4:00 PM 68.0 °F - 62.6 °F 83% 29.99 in 6.2 mi ESE 3.5 mph - N/A Rain Light Rain
5:00 PM 69.8 °F - 62.6 °F 78% 29.97 in - East 8.1 mph - N/A   Clear
6:00 PM 69.8 °F - 60.8 °F 73% 29.98 in - ENE 3.5 mph - N/A   Clear
7:00 PM 71.6 °F - 60.8 °F 69% 30.01 in - ESE 8.1 mph - N/A   Clear
8:00 PM 69.8 °F - 59.0 °F 68% 30.02 in - ENE 8.1 mph - N/A   Clear
9:00 PM 69 °F - 60 °F 66% 29.86 in 12 mi East 8.1 mph - -   Scattered Clouds
9:00 PM 69.8 °F - 60.8 °F 73% 30.02 in - East 8.1 mph - N/A   Clear
10:00 PM 69.8 °F - 60.8 °F 73% 30.04 in - ENE 9.2 mph - N/A   Clear
11:00 PM 68.0 °F - 62.6 °F 83% 30.02 in 6.2 mi East 13.8 mph - N/A Rain Light Rain